Weather History for Livingston, MT

Change the Weather History Date:

Wednesday, January 2, 2013

  Actual Average Record
Temperature  
Mean Temperature 15 °F 26 °F  
Max Temperature 25 °F 36 °F 59 °F (2009)
Min Temperature 5 °F 16 °F -23 °F (1959)
Degree Days  
Heating Degree Days 50 39  
Month to date heating degree days 78  
Since 1 July heating degree days 3243  
Moisture  
Dew Point 4 °F    
Average Humidity 59    
Maximum Humidity 77    
Minimum Humidity 45    
Precipitation  
Precipitation 0.00 in 0.01 in 0.74 in (1990)
Month to date precipitation 0.03  
Year to date precipitation 0.03  
Sea Level Pressure  
Sea Level Pressure 30.50 in    
Wind  
Wind Speed 15 mph (WNW)    
Max Wind Speed 24 mph    
Max Gust Speed 28 mph    
Visibility 10 miles    
Events      
T = Trace of Precipitation, MM = Missing Value Source: NWS Daily Summary

Daily Weather History Graph

Daily Weather History Graph

Search for Another Location

Airport:

Trip Planner

Search our weather history database for the weather conditions in past years. The results will help you decide how hot, cold, wet, or windy it might be!

Date:

Astronomy

Jan. 02, 2013 Rise Set
Actual Time 8:02 AM MST 4:49 PM MST
Civil Twilight 7:28 AM MST 5:23 PM MST
Nautical Twilight 6:50 AM MST 6:01 PM MST
Astronomical Twilight 6:14 AM MST 6:37 PM MST
Moon 10:44 PM MST 10:29 AM MST
Length of Visible Light 9h 55m
Length of Day
8h 47m
Waning Gibbous, 74% of the Moon is Illuminated
Jan 2
Waning Gibbous
Jan 4
Last Quarter
Jan 11
New
Jan 18
First Quarter
Jan 26
Full

Hourly Weather History & Observations

Time (MST) Temp. Windchill Dew Point Humidity Pressure Visibility Wind Dir Wind Speed Gust Speed Precip Events Conditions
12:53 AM 12.0 °F -2.7 °F 5.0 °F 73% 30.43 in 10.0 mi WNW 12.7 mph - N/A   Clear
1:53 AM 10.0 °F -4.5 °F 3.9 °F 76% 30.44 in 10.0 mi NW 11.5 mph - N/A   Clear
2:53 AM 9.0 °F -4.2 °F 3.0 °F 77% 30.46 in 10.0 mi WNW 9.2 mph - N/A   Clear
3:53 AM 12.9 °F -0.9 °F 3.9 °F 67% 30.46 in 10.0 mi WNW 11.5 mph - N/A   Clear
5:53 AM 17.1 °F 0.6 °F 5.0 °F 59% 30.45 in 10.0 mi West 19.6 mph - N/A   Clear
6:53 AM 7.0 °F -13.6 °F -0.0 °F 73% 30.48 in 10.0 mi NNW 21.9 mph - N/A   Clear
7:53 AM 5.0 °F -13.0 °F -0.9 °F 76% 30.54 in 10.0 mi NW 15.0 mph 24.2 mph N/A   Clear
8:53 AM 12.9 °F -4.4 °F 1.9 °F 62% 30.54 in 10.0 mi West 18.4 mph - N/A   Clear
9:53 AM 19.0 °F 3.2 °F 5.0 °F 54% 30.53 in 10.0 mi West 19.6 mph - N/A   Clear
10:53 AM 19.9 °F 5.2 °F 3.9 °F 50% 30.54 in 10.0 mi WNW 17.3 mph - N/A   Clear
11:53 AM 21.0 °F 7.6 °F 6.1 °F 53% 30.53 in 10.0 mi WNW 15.0 mph - N/A   Clear
12:53 PM 23.0 °F 8.0 °F 6.1 °F 48% 30.50 in 10.0 mi WNW 20.7 mph - N/A   Clear
1:53 PM 24.1 °F 11.0 °F 6.1 °F 46% 30.51 in 10.0 mi West 16.1 mph - N/A   Clear
2:53 PM 25.0 °F 13.6 °F 6.1 °F 45% 30.51 in 10.0 mi West 12.7 mph - N/A   Clear
3:53 PM 23.0 °F 11.7 °F 5.0 °F 46% 30.51 in 10.0 mi West 11.5 mph - N/A   Clear
4:53 PM 17.1 °F 2.5 °F 3.0 °F 54% 30.53 in 10.0 mi West 15.0 mph - N/A   Clear
5:53 PM 18.0 °F 3.1 °F 3.0 °F 52% 30.51 in 10.0 mi West 16.1 mph - N/A   Clear
6:53 PM 15.1 °F 0.5 °F 1.9 °F 56% 30.56 in 10.0 mi West 13.8 mph - N/A   Clear
7:53 PM 14.0 °F -1.4 °F 3.0 °F 62% 30.56 in 10.0 mi West 15.0 mph - N/A   Clear
8:53 PM 16.0 °F 0.1 °F 3.0 °F 57% 30.51 in 10.0 mi WNW 17.3 mph - N/A   Clear
9:53 PM 17.1 °F -0.3 °F 3.0 °F 54% 30.48 in 10.0 mi WNW 21.9 mph - N/A   Clear
10:53 PM 17.1 °F 0.6 °F 3.0 °F 54% 30.47 in 10.0 mi WNW 19.6 mph 27.6 mph N/A   Clear
11:53 PM 18.0 °F 0.2 °F 3.0 °F 52% 30.45 in 10.0 mi WNW 24.2 mph - N/A   Clear